ARIANE 2 DEB, 33558

Orbit data source: Space-Track

ARIANE 2 DEB, 33558 is space debris in HEO originally from a launch on Fri, 27 Jan 1989 UTC launched from the French Guiana (FRGUI). Debris objects in space refer to the collection of defunct objects orbiting the Earth. Examples of debris include non-operational satellites, rocket bodies, and fragments generated from explosions, collisions, or faulty payload assembly.

Loading next visibility...
Identifier
33558, 1989-006BA
Orbit
HEO
Country
Flag of FRFR
Related business
Manufacturer
EADS/LV
Mission
Spacecraft
Bus & Motor
Unknown
Mass
Unknown
Launch date (UTC)
1989-01-27 (37 years ago)
Launch vehicle
Unknown
Launch site
French Guiana (FRGUI)
Object type
Payload
Rocket body
Debris
Shape & HBR
Unknown shape, 0.2 m
Radar Cross Section
Medium (>0.1 m² and <1 m²)

Expand to show TLE details & history
Last TLE update: 2 days ago

TLE from 2 days ago
0 ARIANE 2 DEB
1 33558U 89006BA  25290.53514320 -.00000147  00000-0  00000-0 0  9991
2 33558  10.3092  52.4165 6951261 113.7792 330.5560  2.21896727 15860
Epoch: 2025-10-17T12:50Z
TLE epoch observation values (Epoch: 2025-10-17T12:50:36.372Z)
Latitude
0.00001°
Longitude
-166.48029°
Altitude
11,443.992 km
Speed
5.355 km/s
True Right ascension
03h 29m 48s
True Declination
0° 00' 00"
Sunlit
Object was in daylight at epoch
Visualization orbit readout
Latitude
Unknown
Longitude
Unknown
Altitude
Unknown
Speed
Unknown
Apparent Right ascension
Unknown
Apparent Declination
Unknown
Sunlit
N/A
Visualization observer readout
Local Sidereal Time
10:17:30
Azimuth
Unknown
Elevation
Unknown
Doppler factor
Unknown
Orbital elements
Apogee altitude
35,718.721 km
Perigee altitude
1,193.119 km
Semi-major axis
24,834.057 km
Eccentricity
0.69513
Inclination
10.3092°
RAAN
52.4165°
Arg. of periapsis
113.7792°
True anomaly
246.53306°
Mean anomaly
330.556°
Eccentric anomaly
294.23955°
Mean motion
0.55459 °/min
Orbital period
649.13 mins
BSTAR
0
Loading maneuver chart data...
Computing Atmospheric mass density...
Loading historical data...
Loading historical data...
Loading historical data...
Loading historical data...
Loading historical data...
Loading historical data...
Loading historical data...

Documentation

Showing up to 5 results
|